Hourly Weather Quito

Today, 21 September, Monday

Time Temperature Precipitation Wind Pressure Humidity
00:00 +20°C° 0 mm 2 mps 621 mmHg 58%
01:00 +19°C° 0 mm 2 mps 621 mmHg 61%
02:00 +19°C° 0 mm 2 mps 621 mmHg 64%
03:00 +19°C° 0 mm 2 mps 621 mmHg 66%
04:00 +18°C° 0 mm 2 mps 621 mmHg 69%
05:00 +19°C° 0 mm 2 mps 621 mmHg 67%
06:00 +20°C° 0 mm 2 mps 622 mmHg 65%
07:00 +22°C° 0 mm 1 mps 623 mmHg 63%
08:00 +25°C° 0 mm 1 mps 624 mmHg 51%
09:00 +29°C° 0 mm 1 mps 625 mmHg 39%
10:00 +32°C° 0 mm 1 mps 626 mmHg 27%
11:00 +32°C° 0 mm 2 mps 625 mmHg 24%
12:00 +34°C° 0 mm 3 mps 625 mmHg 22%
13:00 +34°C° 0 mm 3 mps 624 mmHg 19%
14:00 +33°C° 0 mm 3 mps 624 mmHg 21%
15:00 +33°C° 0 mm 3 mps 623 mmHg 22%
16:00 +31°C° 0 mm 3 mps 622 mmHg 24%
17:00 +29°C° 0 mm 2 mps 622 mmHg 28%
18:00 +27°C° 0 mm 1 mps 622 mmHg 33%
19:00 +25°C° 0 mm 1 mps 622 mmHg 37%
20:00 +24°C° 0 mm 1 mps 622 mmHg 38%
21:00 +24°C° 0 mm 1 mps 623 mmHg 38%
22:00 +24°C° 0 mm 2 mps 623 mmHg 39%
23:00 +21°C° 0 mm 2 mps 623 mmHg 47%

Tomorrow, 22 September, Tuesday

Time Temperature Precipitation Wind Pressure Humidity
00:00 +20°C° 0 mm 2 mps 622 mmHg 56%
01:00 +19°C° 0 mm 3 mps 622 mmHg 65%
02:00 +18°C° 0 mm 2 mps 622 mmHg 67%
03:00 +18°C° 0 mm 2 mps 622 mmHg 70%
04:00 +18°C° 0 mm 2 mps 622 mmHg 72%
05:00 +19°C° 0 mm 2 mps 622 mmHg 67%
06:00 +20°C° 0 mm 2 mps 623 mmHg 62%
07:00 +21°C° 0 mm 3 mps 624 mmHg 57%
08:00 +25°C° 0 mm 2 mps 625 mmHg 47%
09:00 +29°C° 0 mm 2 mps 626 mmHg 36%
10:00 +32°C° 0 mm 2 mps 627 mmHg 26%
11:00 +32°C° 0 mm 2 mps 626 mmHg 23%
12:00 +33°C° 0 mm 3 mps 625 mmHg 21%
13:00 +33°C° 0 mm 3 mps 624 mmHg 19%
14:00 +33°C° 0 mm 3 mps 624 mmHg 20%
15:00 +33°C° 0 mm 3 mps 623 mmHg 21%
16:00 +31°C° 0 mm 3 mps 623 mmHg 22%
17:00 +29°C° 0 mm 3 mps 623 mmHg 28%
18:00 +27°C° 0 mm 2 mps 623 mmHg 33%
19:00 +25°C° 0 mm 1 mps 623 mmHg 38%
20:00 +24°C° 0 mm 2 mps 623 mmHg 41%
21:00 +23°C° 0 mm 2 mps 623 mmHg 43%
22:00 +21°C° 0 mm 2 mps 623 mmHg 45%
23:00 +20°C° 0 mm 2 mps 623 mmHg 53%

Day after tomorrow, 23 September, Wednesday

Time Temperature Precipitation Wind Pressure Humidity
00:00 +20°C° 0 mm 2 mps 623 mmHg 60%
01:00 +19°C° 0 mm 3 mps 622 mmHg 68%
02:00 +18°C° 0 mm 3 mps 622 mmHg 71%
03:00 +18°C° 0 mm 3 mps 622 mmHg 74%
04:00 +17°C° 0 mm 3 mps 622 mmHg 77%
05:00 +18°C° 0 mm 3 mps 622 mmHg 71%
06:00 +19°C° 0 mm 3 mps 623 mmHg 65%
07:00 +20°C° 0 mm 3 mps 624 mmHg 60%
08:00 +24°C° 0 mm 3 mps 624 mmHg 50%
09:00 +27°C° 0 mm 3 mps 625 mmHg 39%
10:00 +30°C° 0 mm 4 mps 626 mmHg 29%
11:00 +32°C° 0 mm 4 mps 625 mmHg 26%
12:00 +33°C° 0 mm 4 mps 625 mmHg 23%
13:00 +34°C° 0 mm 4 mps 624 mmHg 20%
14:00 +34°C° 0 mm 3 mps 623 mmHg 20%
15:00 +34°C° 0 mm 3 mps 623 mmHg 19%
16:00 +32°C° 0 mm 2 mps 623 mmHg 19%
17:00 +30°C° 0 mm 2 mps 622 mmHg 23%
18:00 +27°C° 0 mm 1 mps 622 mmHg 26%
19:00 +25°C° 0 mm 1 mps 622 mmHg 30%
20:00 +24°C° 0 mm 1 mps 622 mmHg 32%
21:00 +24°C° 0 mm 1 mps 623 mmHg 33%
22:00 +23°C° 0 mm 1 mps 623 mmHg 34%
23:00 +21°C° 0 mm 2 mps 623 mmHg 42%

24 September, Thursday

Time Temperature Precipitation Wind Pressure Humidity
00:00 +20°C° 0 mm 2 mps 623 mmHg 50%
01:00 +19°C° 0 mm 3 mps 622 mmHg 58%
02:00 +18°C° 0 mm 3 mps 622 mmHg 63%
03:00 +18°C° 0 mm 2 mps 622 mmHg 68%
04:00 +17°C° 0 mm 2 mps 621 mmHg 72%
05:00 +18°C° 0 mm 2 mps 622 mmHg 67%
06:00 +18°C° 0 mm 2 mps 623 mmHg 62%
07:00 +19°C° 0 mm 2 mps 624 mmHg 57%
08:00 +22°C° 0 mm 3 mps 624 mmHg 45%
09:00 +27°C° 0 mm 4 mps 625 mmHg 34%
10:00 +30°C° 0 mm 5 mps 626 mmHg 22%
11:00 +32°C° 0 mm 4 mps 625 mmHg 20%
12:00 +33°C° 0 mm 4 mps 624 mmHg 18%
13:00 +34°C° 0 mm 3 mps 624 mmHg 16%
14:00 +34°C° 0 mm 3 mps 623 mmHg 15%
15:00 +34°C° 0 mm 3 mps 623 mmHg 13%
16:00 +34°C° 0 mm 2 mps 622 mmHg 12%
17:00 +30°C° 0 mm 2 mps 622 mmHg 14%
18:00 +27°C° 0 mm 2 mps 622 mmHg 17%
19:00 +24°C° 0 mm 2 mps 621 mmHg 20%
20:00 +23°C° 0 mm 1 mps 621 mmHg 21%
21:00 +22°C° 0 mm 1 mps 622 mmHg 22%
22:00 +22°C° 0 mm 1 mps 622 mmHg 22%
23:00 +20°C° 0 mm 1 mps 622 mmHg 31%

25 September, Friday

Time Temperature Precipitation Wind Pressure Humidity
00:00 +19°C° 0 mm 1 mps 621 mmHg 39%
01:00 +17°C° 0 mm 2 mps 621 mmHg 47%
02:00 +17°C° 0 mm 2 mps 621 mmHg 52%
03:00 +16°C° 0 mm 2 mps 621 mmHg 58%
04:00 +15°C° 0 mm 2 mps 621 mmHg 63%
05:00 +16°C° 0 mm 2 mps 621 mmHg 61%
06:00 +17°C° 0 mm 3 mps 622 mmHg 59%
07:00 +18°C° 0 mm 3 mps 622 mmHg 57%
08:00 +23°C° 0 mm 2 mps 624 mmHg 46%
09:00 +28°C° 0 mm 1 mps 625 mmHg 34%
10:00 +32°C° 0 mm 1 mps 626 mmHg 23%
11:00 +34°C° 0 mm 2 mps 625 mmHg 19%
12:00 +34°C° 0 mm 2 mps 624 mmHg 16%
13:00 +35°C° 0 mm 3 mps 623 mmHg 12%
14:00 +35°C° 0 mm 3 mps 623 mmHg 12%
15:00 +34°C° 0 mm 3 mps 622 mmHg 12%
16:00 +34°C° 0 mm 3 mps 621 mmHg 13%
17:00 +30°C° 0 mm 2 mps 621 mmHg 16%
18:00 +27°C° 0 mm 2 mps 621 mmHg 19%
19:00 +25°C° 0 mm 1 mps 621 mmHg 21%
20:00 +24°C° 0 mm 2 mps 621 mmHg 24%
21:00 +23°C° 0 mm 2 mps 621 mmHg 26%
22:00 +22°C° 0 mm 3 mps 622 mmHg 28%
23:00 +21°C° 0 mm 3 mps 621 mmHg 38%

26 September, Saturday

Time Temperature Precipitation Wind Pressure Humidity
00:00 +20°C° 0 mm 3 mps 621 mmHg 48%
01:00 +19°C° 0 mm 3 mps 621 mmHg 58%
02:00 +18°C° 0 mm 3 mps 620 mmHg 61%
03:00 +17°C° 0 mm 3 mps 620 mmHg 63%
04:00 +17°C° 0 mm 3 mps 620 mmHg 65%
05:00 +18°C° 0 mm 3 mps 621 mmHg 61%
06:00 +18°C° 0 mm 3 mps 621 mmHg 57%
07:00 +19°C° 0 mm 3 mps 622 mmHg 54%
08:00 +24°C° 0 mm 3 mps 623 mmHg 43%
09:00 +27°C° 0 mm 3 mps 624 mmHg 32%
10:00 +30°C° 0 mm 2 mps 624 mmHg 21%
11:00 +32°C° 0 mm 2 mps 624 mmHg 17%
12:00 +36°C° 0 mm 2 mps 624 mmHg 14%
13:00 +37°C° 0 mm 1 mps 623 mmHg 11%
14:00 +37°C° 0 mm 2 mps 622 mmHg 11%
15:00 +36°C° 0 mm 2 mps 622 mmHg 11%
16:00 +35°C° 0 mm 3 mps 621 mmHg 12%
17:00 +31°C° 0 mm 3 mps 620 mmHg 15%
18:00 +28°C° 0 mm 2 mps 620 mmHg 19%
19:00 +26°C° 0 mm 2 mps 620 mmHg 22%
20:00 +25°C° 0 mm 2 mps 620 mmHg 24%
21:00 +24°C° 0 mm 2 mps 621 mmHg 25%
22:00 +23°C° 0 mm 2 mps 621 mmHg 27%
23:00 +21°C° 0 mm 3 mps 621 mmHg 35%
Show more